ARG1572 SACO-SAZN

Flight info

Callsign ARG1572
Flight time 1h 26m
Altitude FL380
Route SIME1G SIMES UZ114 OSEKO OSEK1Q
Aircraft B38M/M-SDE2E3FGHIRWXY/LB1

Departure

Time 2026-04-22 00:44
Airport Ingeniero Aeronáutico Ambrosio L.V. Taravella International Airport (SACO)

Arrival

Time 2026-04-22 02:11
Airport Presidente Perón International Airport (SAZN)
Time Latitude Longitude Altitude Speed Heading
2026-04-22 00:14 -31.31551 -64.21167 1615 ft 0 kts 257°
2026-04-22 00:32 -31.31548 -64.21149 1623 ft 4 kts 270°
2026-04-22 00:32 -31.31554 -64.21121 1619 ft 4 kts 309°
2026-04-22 00:32 -31.31575 -64.21104 1617 ft 4 kts 345°
2026-04-22 00:32 -31.31594 -64.21102 1620 ft 0 kts
2026-04-22 00:38 -31.31586 -64.21101 1623 ft 2 kts
2026-04-22 00:38 -31.31558 -64.21090 1618 ft 6 kts 25°
2026-04-22 00:38 -31.31503 -64.21065 1620 ft 11 kts 30°
2026-04-22 00:39 -31.31466 -64.20977 1615 ft 15 kts 91°
2026-04-22 00:39 -31.31465 -64.20892 1616 ft 9 kts 85°
2026-04-22 00:39 -31.31413 -64.20834 1624 ft 13 kts 12°
2026-04-22 00:39 -31.31303 -64.20830 1617 ft 18 kts 359°
2026-04-22 00:40 -31.31163 -64.20833 1617 ft 21 kts 359°
2026-04-22 00:40 -31.31010 -64.20835 1617 ft 23 kts 359°
2026-04-22 00:40 -31.30849 -64.20837 1616 ft 24 kts 359°
2026-04-22 00:40 -31.30689 -64.20840 1620 ft 23 kts 359°
2026-04-22 00:41 -31.30528 -64.20843 1619 ft 24 kts 359°
2026-04-22 00:41 -31.30365 -64.20845 1621 ft 23 kts 359°
2026-04-22 00:41 -31.30204 -64.20847 1618 ft 24 kts 359°
2026-04-22 00:41 -31.30035 -64.20850 1622 ft 25 kts 359°
2026-04-22 00:42 -31.29871 -64.20853 1618 ft 23 kts 359°
2026-04-22 00:42 -31.29719 -64.20855 1620 ft 18 kts 355°
2026-04-22 00:42 -31.29619 -64.20895 1616 ft 15 kts 359°
2026-04-22 00:42 -31.29592 -64.20862 1617 ft 1 kts 133°
2026-04-22 00:43 -31.29609 -64.20858 1619 ft 6 kts 175°
2026-04-22 00:43 -31.29674 -64.20856 1615 ft 12 kts 179°
2026-04-22 00:43 -31.29987 -64.20852 1620 ft 82 kts 179°
2026-04-22 00:43 -31.30775 -64.20840 1620 ft 143 kts 179°
2026-04-22 00:44 -31.31918 -64.20824 1789 ft 172 kts 180°
2026-04-22 00:44 -31.33080 -64.20835 2583 ft 172 kts 174°
2026-04-22 00:44 -31.34246 -64.20488 3265 ft 174 kts 154°
2026-04-22 00:44 -31.35276 -64.19639 3706 ft 194 kts 135°
2026-04-22 00:45 -31.36280 -64.18469 4132 ft 215 kts 136°
2026-04-22 00:45 -31.37423 -64.17170 4523 ft 243 kts 136°
2026-04-22 00:45 -31.38674 -64.15761 5291 ft 249 kts 136°
2026-04-22 00:45 -31.39962 -64.14316 5980 ft 267 kts 136°
2026-04-22 00:46 -31.41349 -64.12765 6584 ft 284 kts 136°
2026-04-22 00:46 -31.42783 -64.11162 7459 ft 286 kts 137°
2026-04-22 00:46 -31.44229 -64.09545 8325 ft 291 kts 137°
2026-04-22 00:46 -31.45696 -64.07887 9184 ft 296 kts 134°
2026-04-22 00:47 -31.46952 -64.05962 10056 ft 301 kts 126°
2026-04-22 00:47 -31.48171 -64.03911 10585 ft 316 kts 126°
2026-04-22 00:47 -31.49473 -64.01742 10967 ft 335 kts 127°
2026-04-22 00:47 -31.50841 -63.99472 11460 ft 348 kts 127°
2026-04-22 00:48 -31.52248 -63.97143 12198 ft 352 kts 128°
2026-04-22 00:48 -31.53924 -63.95068 12857 ft 353 kts 148°
2026-04-22 00:48 -31.55978 -63.93492 13603 ft 356 kts 151°
2026-04-22 00:48 -31.58064 -63.91902 14292 ft 361 kts 151°
2026-04-22 00:49 -31.60190 -63.90298 14946 ft 366 kts 152°
2026-04-22 00:49 -31.62343 -63.88681 15603 ft 371 kts 152°
2026-04-22 00:49 -31.64527 -63.87043 16250 ft 376 kts 152°
2026-04-22 00:49 -31.66743 -63.85383 16880 ft 381 kts 153°
2026-04-22 00:50 -31.68987 -63.83701 17502 ft 386 kts 153°
2026-04-22 00:50 -31.71259 -63.81996 18121 ft 390 kts 153°
2026-04-22 00:50 -31.73556 -63.80273 18695 ft 395 kts 153°
2026-04-22 00:50 -31.75878 -63.78529 19237 ft 399 kts 153°
2026-04-22 00:51 -31.78219 -63.76770 19784 ft 402 kts 153°
2026-04-22 00:51 -31.80584 -63.74992 20319 ft 406 kts 153°
2026-04-22 00:51 -31.82970 -63.73197 20853 ft 410 kts 154°
2026-04-22 00:51 -31.85378 -63.71384 21383 ft 413 kts 154°
2026-04-22 00:52 -31.87806 -63.69556 21901 ft 417 kts 154°
2026-04-22 00:52 -31.90252 -63.67712 22433 ft 420 kts 154°
2026-04-22 00:52 -31.92723 -63.65849 22922 ft 424 kts 154°
2026-04-22 00:52 -31.95212 -63.63971 23442 ft 428 kts 154°
2026-04-22 00:53 -31.97724 -63.62074 23879 ft 432 kts 154°
2026-04-22 00:53 -32.00283 -63.60225 24260 ft 430 kts 161°
2026-04-22 00:53 -32.03061 -63.59096 24594 ft 418 kts 179°
2026-04-22 00:53 -32.05908 -63.58939 24929 ft 406 kts 194°
2026-04-22 00:54 -32.08612 -63.59627 25247 ft 394 kts 209°
2026-04-22 00:54 -32.11116 -63.60891 25613 ft 393 kts 213°
2026-04-22 00:54 -32.13567 -63.62303 26014 ft 393 kts 216°
2026-04-22 00:54 -32.15986 -63.63802 26413 ft 394 kts 217°
2026-04-22 00:55 -32.18396 -63.65356 26817 ft 396 kts 218°
2026-04-22 00:55 -32.20802 -63.66935 27220 ft 398 kts 218°
2026-04-22 00:55 -32.25641 -63.70161 28001 ft 402 kts 219°
2026-04-22 00:56 -32.28074 -63.71794 28383 ft 405 kts 219°
2026-04-22 00:56 -32.30523 -63.73439 28764 ft 407 kts 219°
2026-04-22 00:56 -32.32984 -63.75094 29140 ft 409 kts 219°
2026-04-22 00:56 -32.35458 -63.76759 29503 ft 411 kts 219°
2026-04-22 00:57 -32.37946 -63.78434 29866 ft 414 kts 219°
2026-04-22 00:57 -32.40450 -63.80121 30218 ft 416 kts 219°
2026-04-22 00:57 -32.42960 -63.81814 30523 ft 418 kts 220°
2026-04-22 00:57 -32.45486 -63.83519 30824 ft 419 kts 220°
2026-04-22 00:58 -32.48016 -63.85227 31130 ft 421 kts 220°
2026-04-22 00:58 -32.50558 -63.86945 31426 ft 422 kts 220°
2026-04-22 00:58 -32.53108 -63.88669 31726 ft 424 kts 220°
2026-04-22 00:58 -32.55670 -63.90402 32019 ft 425 kts 221°
2026-04-22 00:59 -32.58237 -63.92139 32335 ft 426 kts 221°
2026-04-22 00:59 -32.60804 -63.93879 32725 ft 425 kts 221°
2026-04-22 00:59 -32.63363 -63.95612 33120 ft 424 kts 221°
2026-04-22 00:59 -32.65916 -63.97335 33514 ft 423 kts 221°
2026-04-22 01:00 -32.68469 -63.99043 33903 ft 422 kts 222°
2026-04-22 01:00 -32.71019 -64.00752 34269 ft 421 kts 222°
2026-04-22 01:00 -32.73558 -64.02455 34575 ft 420 kts 222°
2026-04-22 01:00 -32.76097 -64.04160 34853 ft 420 kts 222°
2026-04-22 01:01 -32.78633 -64.05863 35128 ft 420 kts 222°
2026-04-22 01:01 -32.81171 -64.07570 35387 ft 420 kts 222°
2026-04-22 01:01 -32.83712 -64.09278 35650 ft 420 kts 222°
2026-04-22 01:01 -32.86244 -64.10983 35900 ft 420 kts 222°
2026-04-22 01:02 -32.88780 -64.12691 36149 ft 420 kts 222°
2026-04-22 01:02 -32.91314 -64.14399 36395 ft 419 kts 222°
2026-04-22 01:02 -32.93849 -64.16108 36614 ft 420 kts 222°
2026-04-22 01:02 -32.96382 -64.17818 36843 ft 420 kts 222°
2026-04-22 01:03 -32.98916 -64.19529 37067 ft 420 kts 222°
2026-04-22 01:03 -33.01446 -64.21240 37286 ft 419 kts 222°
2026-04-22 01:03 -33.03982 -64.22955 37493 ft 420 kts 222°
2026-04-22 01:03 -33.06513 -64.24667 37682 ft 420 kts 223°
2026-04-22 01:04 -33.09039 -64.26398 37879 ft 418 kts 224°
2026-04-22 01:04 -33.11523 -64.28170 38012 ft 418 kts 224°
2026-04-22 01:04 -33.16506 -64.31713 38014 ft 417 kts 224°
2026-04-22 01:05 -33.21483 -64.35251 38004 ft 417 kts 224°
2026-04-22 01:05 -33.26466 -64.38798 38005 ft 418 kts 223°
2026-04-22 01:06 -33.31453 -64.42352 37998 ft 418 kts 223°
2026-04-22 01:06 -33.36441 -64.45911 37998 ft 419 kts 223°
2026-04-22 01:07 -33.41433 -64.49479 37996 ft 419 kts 223°
2026-04-22 01:07 -33.46423 -64.53049 37997 ft 419 kts 223°
2026-04-22 01:08 -33.51462 -64.56569 37990 ft 421 kts 223°
2026-04-22 01:08 -33.56517 -64.60075 37991 ft 421 kts 223°
2026-04-22 01:09 -33.61573 -64.63592 37991 ft 421 kts 223°
2026-04-22 01:09 -33.66625 -64.67111 37989 ft 421 kts 223°
2026-04-22 01:10 -33.71681 -64.70638 37984 ft 421 kts 223°
2026-04-22 01:10 -33.76738 -64.74170 37991 ft 421 kts 223°
2026-04-22 01:11 -33.81791 -64.77704 37991 ft 421 kts 223°
2026-04-22 01:11 -33.86844 -64.81240 37986 ft 421 kts 223°
2026-04-22 01:12 -33.91894 -64.84777 37993 ft 421 kts 222°
2026-04-22 01:12 -33.96944 -64.88319 37987 ft 421 kts 223°
2026-04-22 01:13 -34.01988 -64.91861 37984 ft 421 kts 223°
2026-04-22 01:13 -34.07029 -64.95405 38122 ft 420 kts 223°
2026-04-22 01:14 -34.12075 -64.98959 38132 ft 421 kts 223°
2026-04-22 01:14 -34.17114 -65.02512 38139 ft 420 kts 223°
2026-04-22 01:15 -34.22155 -65.06072 38138 ft 420 kts 223°
2026-04-22 01:15 -34.27195 -65.09636 38135 ft 421 kts 223°
2026-04-22 01:16 -34.32233 -65.13204 38131 ft 421 kts 223°
2026-04-22 01:16 -34.37276 -65.16780 38134 ft 421 kts 223°
2026-04-22 01:17 -34.42318 -65.20360 38128 ft 421 kts 222°
2026-04-22 01:17 -34.47364 -65.23949 38127 ft 421 kts 222°
2026-04-22 01:18 -34.52414 -65.27546 38126 ft 422 kts 222°
2026-04-22 01:18 -34.57461 -65.31145 38129 ft 422 kts 222°
2026-04-22 01:19 -34.62515 -65.34755 38122 ft 422 kts 222°
2026-04-22 01:19 -34.67566 -65.38366 38120 ft 422 kts 221°
2026-04-22 01:20 -34.72622 -65.41987 38125 ft 423 kts 221°
2026-04-22 01:20 -34.77681 -65.45615 38122 ft 423 kts 221°
2026-04-22 01:21 -34.82742 -65.49249 38126 ft 423 kts 221°
2026-04-22 01:21 -34.87803 -65.52888 38119 ft 423 kts 221°
2026-04-22 01:22 -34.92869 -65.56536 38123 ft 424 kts 221°
2026-04-22 01:22 -34.97930 -65.60185 38122 ft 424 kts 221°
2026-04-22 01:23 -35.02993 -65.63841 38120 ft 424 kts 220°
2026-04-22 01:23 -35.08061 -65.67507 38125 ft 424 kts 220°
2026-04-22 01:24 -35.13128 -65.71178 38121 ft 425 kts 220°
2026-04-22 01:24 -35.18200 -65.74857 38119 ft 425 kts 220°
2026-04-22 01:25 -35.23270 -65.78539 38120 ft 425 kts 220°
2026-04-22 01:25 -35.28351 -65.82235 38116 ft 426 kts 220°
2026-04-22 01:26 -35.33430 -65.85936 38120 ft 426 kts 220°
2026-04-22 01:26 -35.38512 -65.89644 38124 ft 426 kts 220°
2026-04-22 01:27 -35.43603 -65.93364 38113 ft 427 kts 219°
2026-04-22 01:27 -35.48696 -65.97091 38115 ft 427 kts 219°
2026-04-22 01:28 -35.53793 -66.00827 38113 ft 428 kts 219°
2026-04-22 01:28 -35.58894 -66.04571 38112 ft 428 kts 219°
2026-04-22 01:29 -35.63999 -66.08323 38114 ft 429 kts 219°
2026-04-22 01:29 -35.69108 -66.12088 38111 ft 429 kts 219°
2026-04-22 01:30 -35.74222 -66.15861 38110 ft 430 kts 219°
2026-04-22 01:30 -35.79343 -66.19645 38112 ft 430 kts 219°
2026-04-22 01:31 -35.84468 -66.23438 38117 ft 431 kts 219°
2026-04-22 01:31 -35.89599 -66.27241 38110 ft 431 kts 219°
2026-04-22 01:32 -35.94734 -66.31052 38101 ft 431 kts 219°
2026-04-22 01:32 -35.99866 -66.34868 38108 ft 432 kts 219°
2026-04-22 01:33 -36.05002 -66.38692 38104 ft 432 kts 219°
2026-04-22 01:33 -36.10143 -66.42526 38102 ft 432 kts 219°
2026-04-22 01:34 -36.15278 -66.46361 38106 ft 432 kts 219°
2026-04-22 01:34 -36.20418 -66.50206 38100 ft 433 kts 219°
2026-04-22 01:35 -36.25558 -66.54057 38101 ft 433 kts 219°
2026-04-22 01:35 -36.30696 -66.57913 38099 ft 433 kts 218°
2026-04-22 01:36 -36.35840 -66.61779 38097 ft 433 kts 218°
2026-04-22 01:36 -36.40985 -66.65652 38094 ft 434 kts 218°
2026-04-22 01:37 -36.46133 -66.69533 38095 ft 434 kts 218°
2026-04-22 01:37 -36.51281 -66.73419 38095 ft 434 kts 218°
2026-04-22 01:38 -36.56432 -66.77316 38096 ft 435 kts 218°
2026-04-22 01:38 -36.61588 -66.81221 38092 ft 435 kts 218°
2026-04-22 01:39 -36.66745 -66.85134 38091 ft 435 kts 218°
2026-04-22 01:39 -36.71904 -66.89054 38091 ft 435 kts 218°
2026-04-22 01:40 -36.77067 -66.92983 38086 ft 436 kts 218°
2026-04-22 01:40 -36.79646 -66.94948 37966 ft 434 kts 218°
2026-04-22 01:40 -36.82211 -66.96902 37286 ft 433 kts 218°
2026-04-22 01:41 -36.84766 -66.98850 36757 ft 429 kts 218°
2026-04-22 01:41 -36.87290 -67.00779 36313 ft 424 kts 218°
2026-04-22 01:41 -36.89811 -67.02665 35779 ft 425 kts 213°
2026-04-22 01:41 -36.92526 -67.04176 35165 ft 429 kts 208°
2026-04-22 01:42 -36.95254 -67.05642 34727 ft 425 kts 208°
2026-04-22 01:42 -36.97957 -67.07090 34287 ft 423 kts 208°
2026-04-22 01:42 -37.00654 -67.08533 33745 ft 421 kts 208°
2026-04-22 01:42 -37.03339 -67.09970 33202 ft 420 kts 208°
2026-04-22 01:43 -37.06009 -67.11399 32717 ft 417 kts 208°
2026-04-22 01:43 -37.08660 -67.12819 32249 ft 414 kts 208°
2026-04-22 01:43 -37.11297 -67.14232 31780 ft 412 kts 208°
2026-04-22 01:43 -37.13918 -67.15639 31315 ft 410 kts 208°
2026-04-22 01:44 -37.16525 -67.17038 30850 ft 408 kts 208°
2026-04-22 01:44 -37.19123 -67.18434 30389 ft 406 kts 208°
2026-04-22 01:44 -37.21709 -67.19824 29889 ft 405 kts 208°
2026-04-22 01:44 -37.24287 -67.21211 29386 ft 403 kts 208°
2026-04-22 01:45 -37.26848 -67.22589 28921 ft 400 kts 208°
2026-04-22 01:45 -37.29387 -67.23958 28461 ft 397 kts 208°
2026-04-22 01:45 -37.31912 -67.25319 28023 ft 394 kts 208°
2026-04-22 01:45 -37.34418 -67.26672 27583 ft 392 kts 208°
2026-04-22 01:46 -37.36909 -67.28017 27153 ft 389 kts 208°
2026-04-22 01:46 -37.39387 -67.29356 26709 ft 387 kts 208°
2026-04-22 01:46 -37.41853 -67.30689 26278 ft 385 kts 208°
2026-04-22 01:46 -37.44302 -67.32015 25858 ft 383 kts 208°
2026-04-22 01:47 -37.46743 -67.33337 25443 ft 382 kts 208°
2026-04-22 01:47 -37.49170 -67.34652 25028 ft 380 kts 208°
2026-04-22 01:47 -37.51586 -67.35962 24624 ft 378 kts 208°
2026-04-22 01:47 -37.53994 -67.37269 24220 ft 377 kts 209°
2026-04-22 01:48 -37.56390 -67.38570 23826 ft 375 kts 209°
2026-04-22 01:48 -37.58773 -67.39866 23376 ft 374 kts 209°
2026-04-22 01:48 -37.61152 -67.41159 22933 ft 371 kts 208°
2026-04-22 01:48 -37.63506 -67.42440 22550 ft 368 kts 208°
2026-04-22 01:49 -37.65842 -67.43712 22164 ft 365 kts 208°
2026-04-22 01:49 -37.68156 -67.44973 21799 ft 361 kts 208°
2026-04-22 01:49 -37.70448 -67.46223 21434 ft 358 kts 208°
2026-04-22 01:49 -37.72721 -67.47463 21065 ft 355 kts 208°
2026-04-22 01:50 -37.74976 -67.48695 20709 ft 352 kts 208°
2026-04-22 01:50 -37.77210 -67.49916 20349 ft 350 kts 208°
2026-04-22 01:50 -37.79429 -67.51129 19996 ft 347 kts 208°
2026-04-22 01:50 -37.81632 -67.52335 19648 ft 344 kts 208°
2026-04-22 01:51 -37.83820 -67.53533 19302 ft 342 kts 208°
2026-04-22 01:51 -37.85992 -67.54723 18957 ft 340 kts 208°
2026-04-22 01:51 -37.88151 -67.55906 18611 ft 338 kts 208°
2026-04-22 01:51 -37.90296 -67.57083 18258 ft 336 kts 208°
2026-04-22 01:52 -37.92429 -67.58254 17881 ft 334 kts 208°
2026-04-22 01:52 -37.94542 -67.59415 17520 ft 331 kts 208°
2026-04-22 01:52 -37.96639 -67.60567 17189 ft 327 kts 208°
2026-04-22 01:52 -37.98715 -67.61709 16861 ft 324 kts 208°
2026-04-22 01:53 -38.00769 -67.62839 16531 ft 321 kts 208°
2026-04-22 01:53 -38.02802 -67.63959 16211 ft 318 kts 208°
2026-04-22 01:53 -38.04815 -67.65067 15889 ft 315 kts 208°
2026-04-22 01:53 -38.06812 -67.66169 15567 ft 312 kts 208°
2026-04-22 01:54 -38.08791 -67.67260 15258 ft 309 kts 208°
2026-04-22 01:54 -38.10753 -67.68343 14944 ft 307 kts 208°
2026-04-22 01:54 -38.12697 -67.69417 14638 ft 304 kts 208°
2026-04-22 01:54 -38.14627 -67.70483 14335 ft 302 kts 208°
2026-04-22 01:55 -38.16546 -67.71544 14020 ft 300 kts 207°
2026-04-22 01:55 -38.18448 -67.72596 13698 ft 298 kts 208°
2026-04-22 01:55 -38.20336 -67.73642 13364 ft 295 kts 208°
2026-04-22 01:55 -38.22204 -67.74677 13061 ft 292 kts 208°
2026-04-22 01:56 -38.24053 -67.75702 12758 ft 289 kts 208°
2026-04-22 01:56 -38.25879 -67.76715 12467 ft 286 kts 208°
2026-04-22 01:56 -38.27690 -67.77719 12179 ft 284 kts 208°
2026-04-22 01:56 -38.29513 -67.78731 11884 ft 289 kts 208°
2026-04-22 01:57 -38.31370 -67.79762 11582 ft 292 kts 208°
2026-04-22 01:57 -38.33230 -67.80796 11281 ft 292 kts 208°
2026-04-22 01:57 -38.35085 -67.81827 10976 ft 291 kts 208°
2026-04-22 01:57 -38.36934 -67.82856 10689 ft 290 kts 208°
2026-04-22 01:58 -38.38779 -67.83882 10438 ft 287 kts 208°
2026-04-22 01:58 -38.40579 -67.84884 10303 ft 278 kts 208°
2026-04-22 01:58 -38.42323 -67.85855 10156 ft 270 kts 209°
2026-04-22 01:58 -38.44019 -67.86800 10008 ft 262 kts 209°
2026-04-22 01:59 -38.45675 -67.87724 9747 ft 259 kts 209°
2026-04-22 01:59 -38.47316 -67.88639 9459 ft 256 kts 209°
2026-04-22 01:59 -38.48955 -67.89506 9170 ft 256 kts 201°
2026-04-22 01:59 -38.50741 -67.89788 8861 ft 260 kts 189°
2026-04-22 02:00 -38.52537 -67.89928 8582 ft 258 kts 189°
2026-04-22 02:00 -38.54311 -67.90062 8337 ft 255 kts 188°
2026-04-22 02:00 -38.56094 -67.90191 8074 ft 260 kts 188°
2026-04-22 02:00 -38.57916 -67.90321 7790 ft 264 kts 188°
2026-04-22 02:01 -38.59752 -67.90450 7517 ft 266 kts 187°
2026-04-22 02:01 -38.61595 -67.90579 7230 ft 265 kts 187°
2026-04-22 02:01 -38.63251 -67.90694 6986 ft 263 kts 187°
2026-04-22 02:01 -38.65071 -67.90821 6711 ft 262 kts 187°
2026-04-22 02:02 -38.66883 -67.90947 6427 ft 261 kts 187°
2026-04-22 02:02 -38.68683 -67.91073 6137 ft 258 kts 187°
2026-04-22 02:02 -38.70445 -67.91196 5974 ft 249 kts 187°
2026-04-22 02:02 -38.72139 -67.91315 5864 ft 240 kts 187°
2026-04-22 02:03 -38.73769 -67.91428 5764 ft 230 kts 187°
2026-04-22 02:03 -38.75330 -67.91536 5663 ft 220 kts 187°
2026-04-22 02:03 -38.76821 -67.91641 5585 ft 208 kts 187°
2026-04-22 02:03 -38.78206 -67.91738 5496 ft 192 kts 187°
2026-04-22 02:04 -38.80785 -67.91917 5376 ft 186 kts 187°
2026-04-22 02:04 -38.82076 -67.92009 5274 ft 186 kts 187°
2026-04-22 02:04 -38.83367 -67.92100 5230 ft 186 kts 187°
2026-04-22 02:05 -38.84660 -67.92182 5182 ft 187 kts 185°
2026-04-22 02:05 -38.85965 -67.92187 4975 ft 189 kts 184°
2026-04-22 02:05 -38.87279 -67.92190 4708 ft 190 kts 183°
2026-04-22 02:05 -38.88598 -67.92194 4448 ft 190 kts 182°
2026-04-22 02:06 -38.89924 -67.92203 4142 ft 192 kts 183°
2026-04-22 02:06 -38.91254 -67.92208 3878 ft 192 kts 182°
2026-04-22 02:06 -38.92583 -67.92233 3612 ft 189 kts 188°
2026-04-22 02:06 -38.93735 -67.92838 3521 ft 177 kts 224°
2026-04-22 02:07 -38.94446 -67.94091 3563 ft 175 kts 251°
2026-04-22 02:07 -38.94732 -67.95602 3592 ft 175 kts 261°
2026-04-22 02:07 -38.94903 -67.97142 3574 ft 174 kts 268°
2026-04-22 02:07 -38.94948 -67.98690 3575 ft 174 kts 272°
2026-04-22 02:08 -38.94951 -68.00243 3587 ft 175 kts 272°
2026-04-22 02:08 -38.94951 -68.01814 3351 ft 178 kts 272°
2026-04-22 02:08 -38.94941 -68.03425 3041 ft 184 kts 272°
2026-04-22 02:08 -38.94936 -68.05052 2730 ft 178 kts 272°
2026-04-22 02:09 -38.94931 -68.06581 2350 ft 165 kts 272°
2026-04-22 02:09 -38.94926 -68.07994 1998 ft 154 kts 272°
2026-04-22 02:09 -38.94922 -68.09356 1637 ft 153 kts 271°
2026-04-22 02:09 -38.94917 -68.10709 1307 ft 151 kts 270°
2026-04-22 02:10 -38.94909 -68.12040 1131 ft 149 kts 271°
2026-04-22 02:10 -38.94898 -68.13368 1022 ft 150 kts 269°
2026-04-22 02:10 -38.94909 -68.14688 924 ft 142 kts 270°
2026-04-22 02:10 -38.94908 -68.15808 908 ft 100 kts 271°
2026-04-22 02:11 -38.94898 -68.16386 905 ft 33 kts 272°
2026-04-22 02:11 -38.94905 -68.16515 905 ft 2 kts 121°
2026-04-22 02:11 -38.94903 -68.16483 907 ft 6 kts 80°
2026-04-22 02:11 -38.94899 -68.16394 905 ft 14 kts 88°
2026-04-22 02:12 -38.94899 -68.16264 912 ft 13 kts 91°
2026-04-22 02:12 -38.94900 -68.16142 914 ft 14 kts 90°
2026-04-22 02:12 -38.94900 -68.16010 916 ft 15 kts 90°
2026-04-22 02:12 -38.94900 -68.15863 915 ft 18 kts 90°
2026-04-22 02:13 -38.94901 -68.15715 907 ft 16 kts 90°
2026-04-22 02:13 -38.94901 -68.15563 908 ft 18 kts 90°
2026-04-22 02:13 -38.94901 -68.15390 906 ft 21 kts 90°
2026-04-22 02:13 -38.94901 -68.15241 904 ft 15 kts 90°
2026-04-22 02:14 -38.94922 -68.15114 904 ft 15 kts 118°
2026-04-22 02:14 -38.94994 -68.15012 905 ft 15 kts 137°
2026-04-22 02:14 -38.95074 -68.14910 906 ft 17 kts 127°
2026-04-22 02:14 -38.95092 -68.14756 906 ft 19 kts 90°
2026-04-22 02:15 -38.95093 -68.14584 906 ft 20 kts 90°
2026-04-22 02:15 -38.95094 -68.14397 906 ft 21 kts 90°
2026-04-22 02:15 -38.95094 -68.14242 906 ft 10 kts 90°
2026-04-22 02:15 -38.95097 -68.14177 906 ft 2 kts 110°
2026-04-22 02:16 -38.95109 -68.14164 909 ft 3 kts 153°
2026-04-22 02:16 -38.95136 -68.14159 906 ft 4 kts 176°
2026-04-22 02:16 -38.95152 -68.14158 906 ft 1 kts 178°
2026-04-22 02:16 -38.95154 -68.14158 906 ft 0 kts 179°